Regional Weather Roundup
Issued by NWS

Home | Current Version | Previous Version | Graphics & Text | Print | Product List | Glossary On
Versions: 1 2 3 4 5 6 7 8 9 10 11 12 13 14 15 16 17 18 19 20 21 22 23 24 25 26 27 28 29 30 31 32 33 34 35 36 37 38 39 40 41 42 43 44 45 46 47 48 49 50
000
ASUS43 KLSX 242110
RWRMO

WEATHER SUMMARY FOR MISSOURI
NATIONAL WEATHER SERVICE SPRINGFIELD MO
300 PM CST TUE JAN 24 2017

NOTE: "FAIR" INDICATES FEW OR NO CLOUDS BELOW 12,000 FEET WITH NO
       SIGNIFICANT WEATHER AND/OR OBSTRUCTIONS TO VISIBILITY.
       CURRENT SKY AND/OR WEATHER CONDITIONS ARE NOT AVAILABLE FOR
       CHILLICOTHE AND FARMINGTON.

MOZ001>031-035>038-043-044-053-054-242200-
...NORTHERN AND WESTERN MISSOURI...

CITY           SKY/WX    TMP DP  RH WIND       PRES   REMARKS
KANSAS CTY INT MOSUNNY   48  36  63 E20       29.43F
KANSAS C DTWN  SUNNY     52  39  61 E14       29.43F
LEE`S SUMMIT   SUNNY     53  39  59 E16G23    29.45F
ST JOSEPH      MOSUNNY   46  37  71 E10G22    29.46F
CHILLICOTHE      N/A     43  36  76 E13G24    29.55F
KIRKSVILLE     CLOUDY    37  33  85 E18G25    29.59F WCI  27

$$
MOZ066>068-077>081-088>096-101>105-242200-
...SOUTHWEST MISSOURI...

CITY           SKY/WX    TMP DP  RH WIND       PRES   REMARKS
SPRINGFIELD    SUNNY     65  39  38 S21G29    29.51F
JOPLIN         SUNNY     70  38  31 S25G31    29.46F
BRANSON        MOSUNNY   66  36  32 S21G26    29.57F

$$
MOZ032>034-039>042-045>050-055>058-069>072-242200-
...CENTRAL MISSOURI...

CITY           SKY/WX    TMP DP  RH WIND       PRES   REMARKS
COLUMBIA       MOSUNNY   50  38  63 E18G26    29.56F
JEFFERSON CITY CLOUDY    52  37  56 E18       29.57F
ROLLA          CLOUDY    54  36  50 SE18G25   29.60F
SEDALIA        MOSUNNY   55  40  56 SE15G25   29.52F
WHITEMAN AFB   MOSUNNY   56  40  55 SE15      29.47F
WARRENSBURG    MOSUNNY   55  37  50 E16       29.47F
OSAGE BEACH    MOSUNNY   56  39  53 SE14G24   29.54F

$$
MOZ051-052-059>065-242200-
...EAST CENTRAL MISSOURI...

CITY           SKY/WX    TMP DP  RH WIND       PRES   REMARKS
ST LOUIS INTL  CLOUDY    52  34  50 SE20      29.73F
SPIRIT OF STL  SUNNY     49  36  61 E15       29.71F
ST CHARLES     MOSUNNY   50  38  63 E18       29.71F

$$
MOZ072>076-082>087-097>100-106>115-242200-
...SOUTH CENTRAL AND SOUTHEAST MISSOURI...

CITY           SKY/WX    TMP DP  RH WIND       PRES   REMARKS
CAPE GIRARDEAU NOT AVBL
FARMINGTON     CLOUDY    51  36  56 SE15      29.73F
POPLAR BLUFF   SUNNY     53  42  66 SE12      29.79F
WEST PLAINS    SUNNY     57  38  48 SE17G25   29.67F

$$



USA.gov is the U.S. government's official web portal to all federal, state and local government web resources and services.